Weather History for Lancaster, OH

Change the Weather History Date:

Friday, May 10, 2013

  Actual Average Record
Temperature  
Mean Temperature 65 °F -  
Max Temperature 73 °F 66 °F 92 °F (1936)
Min Temperature 57 °F 43 °F 22 °F (1966)
Growing Degree Days 15 (Base 50)    
Moisture  
Dew Point 59 °F    
Average Humidity 84    
Maximum Humidity 94    
Minimum Humidity 61    
Precipitation  
Precipitation 0.50 in - - ()
Sea Level Pressure  
Sea Level Pressure 29.88 in    
Wind  
Wind Speed 7 mph (SW)    
Max Wind Speed 15 mph    
Max Gust Speed 26 mph    
Visibility 8 miles    
Events Rain , Thunderstorm    
Averages and records for this station are not official NWS values.
T = Trace of Precipitation, MM = Missing Value Source: NWS Daily Summary

Daily Weather History Graph

Daily Weather History Graph

Search for Another Location

Airport:

Trip Planner

Search our weather history database for the weather conditions in past years. The results will help you decide how hot, cold, wet, or windy it might be!

Date:

Astronomy

May. 10, 2013 Rise Set
Actual Time 6:20 AM EDT 8:33 PM EDT
Civil Twilight 5:50 AM EDT 9:04 PM EDT
Nautical Twilight 5:13 AM EDT 9:41 PM EDT
Astronomical Twilight 4:33 AM EDT 10:21 PM EDT
Moon 6:44 AM EDT (5/10) 9:22 PM EDT (5/10)
Length of Visible Light 15h 13m
Length of Day
14h 13m
New Moon, 0% of the Moon is Illuminated
May 10
New Moon
May 18
First Quarter
May 25
Full
May 31
Last Quarter
Jun 8
New

Hourly Weather History & Observations

Time (EDT) Temp. Dew Point Humidity Pressure Visibility Wind Dir Wind Speed Gust Speed Precip Events Conditions
12:53 AM 68.0 °F 54.0 °F 61% 29.97 in 10.0 mi SSW 5.8 mph - N/A   Mostly Cloudy
1:53 AM 66.9 °F 54.0 °F 63% 29.96 in 10.0 mi SSW 3.5 mph - N/A   Mostly Cloudy
2:53 AM 66.9 °F 54.0 °F 63% 29.93 in 10.0 mi South 5.8 mph - N/A   Overcast
3:53 AM 62.1 °F 55.0 °F 78% 29.96 in 6.0 mi WNW 10.4 mph 26.5 mph 0.02 in Rain Light Rain
4:07 AM 60.8 °F 55.4 °F 82% 29.99 in 7.0 mi West 9.2 mph - 0.01 in Rain , Thunderstorm Light Rain
4:50 AM 60.8 °F 57.2 °F 88% 29.95 in 10.0 mi South 3.5 mph - 0.09 in Rain , Thunderstorm Light Rain
4:53 AM 61.0 °F 57.0 °F 87% 29.94 in 10.0 mi Calm Calm - 0.09 in Rain , Thunderstorm Light Rain
5:17 AM 60.8 °F 57.2 °F 88% 29.94 in 10.0 mi Calm Calm - 0.00 in   Overcast
5:53 AM 60.1 °F 57.9 °F 93% 29.94 in 10.0 mi NNW 3.5 mph - 0.00 in Thunderstorm Mostly Cloudy
6:12 AM 57.2 °F 55.4 °F 94% 29.93 in 9.0 mi ESE 4.6 mph - N/A   Mostly Cloudy
6:53 AM 59.0 °F 57.0 °F 93% 29.92 in 8.0 mi SSE 5.8 mph - N/A   Partly Cloudy
7:53 AM 62.1 °F 59.0 °F 90% 29.92 in 7.0 mi SSE 5.8 mph - N/A   Partly Cloudy
9:53 AM 68.0 °F 60.1 °F 76% 29.91 in 10.0 mi South 6.9 mph - N/A   Clear
10:53 AM 72.0 °F 61.0 °F 68% 29.90 in 10.0 mi SSW 10.4 mph - N/A   Partly Cloudy
11:53 AM 73.0 °F 61.0 °F 66% 29.90 in 10.0 mi SSW 11.5 mph - N/A   Partly Cloudy
12:53 PM 72.0 °F 60.1 °F 66% 29.88 in 10.0 mi SSW 15.0 mph - N/A   Mostly Cloudy
1:53 PM 72.0 °F 60.1 °F 66% 29.86 in 10.0 mi SSW 12.7 mph - N/A   Mostly Cloudy
2:13 PM 71.6 °F 60.8 °F 69% 29.88 in 9.0 mi SSW 11.5 mph - 0.00 in Rain , Thunderstorm Light Rain
2:44 PM 60.8 °F 57.2 °F 88% 29.90 in - SSW 4.6 mph - 0.17 in Thunderstorm Thunderstorm
2:53 PM 63.0 °F 59.0 °F 87% 29.89 in 10.0 mi SSW 4.6 mph - 0.17 in Thunderstorm Thunderstorm
3:02 PM 62.6 °F 59.0 °F 88% 29.90 in 9.0 mi SSW 6.9 mph - N/A   Unknown
3:53 PM 64.0 °F 60.1 °F 87% 29.87 in 2.0 mi SSW 5.8 mph - 0.03 in Rain Rain
4:00 PM 62.6 °F 60.8 °F 94% 29.88 in 1.5 mi SSW 6.9 mph - 0.03 in Rain Rain
4:04 PM 62.6 °F 60.8 °F 94% 29.88 in 2.0 mi SW 5.8 mph - 0.03 in Rain Light Rain
4:06 PM 62.6 °F 60.8 °F 94% 29.88 in 3.0 mi SW 6.9 mph - 0.03 in Rain Light Rain
4:25 PM 64.4 °F 60.8 °F 88% 29.88 in 7.0 mi WSW 6.9 mph - 0.04 in Rain Light Rain
4:48 PM 64.4 °F 60.8 °F 88% 29.87 in 2.0 mi WSW 10.4 mph - 0.07 in Rain Heavy Rain
4:53 PM 64.0 °F 60.1 °F 87% 29.86 in 1.5 mi SW 10.4 mph - 0.08 in Rain Rain
4:57 PM 64.4 °F 60.8 °F 88% 29.86 in 2.5 mi SW 10.4 mph - 0.01 in Rain Light Rain
5:02 PM 64.4 °F 60.8 °F 88% 29.86 in 6.0 mi SW 8.1 mph - 0.01 in Rain Light Rain
5:09 PM 64.4 °F 60.8 °F 88% 29.86 in 9.0 mi SW 8.1 mph - 0.01 in Rain Light Rain
5:53 PM 64.0 °F 60.1 °F 87% 29.83 in 6.0 mi SSW 10.4 mph 17.3 mph 0.02 in Rain Light Rain
6:53 PM 63.0 °F 59.0 °F 87% 29.83 in 6.0 mi SW 10.4 mph 18.4 mph 0.03 in Rain Light Rain
7:02 PM 62.6 °F 59.0 °F 88% 29.83 in 6.0 mi SW 12.7 mph 21.9 mph 0.00 in Rain Light Rain
7:46 PM 62.6 °F 59.0 °F 88% 29.83 in 5.0 mi SW 9.2 mph - 0.02 in Rain Light Rain
7:53 PM 63.0 °F 59.0 °F 87% 29.82 in 6.0 mi SW 9.2 mph - 0.03 in Rain Light Rain
8:37 PM 62.6 °F 59.0 °F 88% 29.83 in 10.0 mi SW 9.2 mph - 0.01 in Rain Light Rain
8:53 PM 63.0 °F 59.0 °F 87% 29.82 in 6.0 mi SW 8.1 mph - 0.02 in Rain Light Rain
9:45 PM 62.6 °F 59.0 °F 88% 29.85 in 10.0 mi SW 8.1 mph - 0.01 in   Overcast
9:53 PM 62.1 °F 59.0 °F 90% 29.84 in 10.0 mi SW 6.9 mph - 0.01 in   Overcast
10:08 PM 62.6 °F 59.0 °F 88% 29.85 in 9.0 mi WSW 8.1 mph - 0.00 in Rain Light Rain
10:33 PM 62.6 °F 59.0 °F 88% 29.85 in 10.0 mi WSW 4.6 mph - 0.00 in Rain Light Rain
10:53 PM 62.1 °F 59.0 °F 90% 29.83 in 10.0 mi WSW 8.1 mph - 0.00 in   Overcast
11:47 PM 62.6 °F 59.0 °F 88% 29.84 in 10.0 mi WSW 8.1 mph - N/A   Overcast
11:53 PM 62.1 °F 59.0 °F 90% 29.83 in 10.0 mi WSW 5.8 mph - N/A   Overcast